Flag Weather past 2 weeks in Wesel, North Rhine-Westphalia, Germany

Now
52 °F

Passing clouds.


Feels Like: 50 °F
Forecast: 37 / 46 °F
Wind: 6 mph from South

Location: Niederrhein

Current Time: Nov 24, 2014 at 1:37:11 AM

Latest Report: Nov 23, 2014 at 11:50 PM


Visibility: N/A

Pressure: 29.98 "Hg

Humidity: 94%

Dew point: 50 °F

Location of WeselLocation

Historic Weather in Wesel — Graph

°F

Wesel temperature yesterday

Maximum temperature yesterday: 57 °F (at 2:20 PM)
Minimum temperature yesterday: 46 °F (at 7:20 AM)
Average temperature yesterday: 52 °F

Past Weeks' High & Low Weather Summary

 TemperatureHumidityPressure
High57 °F (Nov 10, 1:20 PM)100% (Nov 9, 11:20 PM)30.33 "Hg (Nov 9, 11:20 PM)
Low37 °F (Nov 21, 4:50 AM)63% (Nov 10, 2:50 PM)29.50 "Hg (Nov 16, 2:50 PM)
Average49 °F93%29.86 "Hg
* Reported Nov 8 11:20 PM — Nov 23 11:50 PM, Wesel, Weather by CustomWeather, © 2014

Note: Actual official high and low records may vary slightly from our data, if they occured in-between our weather recording intervals... More about our weather records

Advertising

Wesel weather history for previous 24 hours

 ConditionsComfort  
Time TempWeatherWind HumidityBarometerVisibility
11:50 PM
Nov 23
52 °FPassing clouds.6 mph94%29.98 "HgN/A
11:20 PM52 °FPassing clouds.7 mph94%29.98 "HgN/A
10:50 PM52 °FPassing clouds.9 mph94%29.98 "HgN/A
10:20 PM52 °FClear.8 mph94%29.98 "Hg10 mi
9:20 PM52 °FClear.7 mph88%29.95 "Hg10 mi
8:50 PM52 °FClear.8 mph88%29.95 "Hg10 mi
8:20 PM52 °FClear.9 mph94%29.95 "Hg10 mi
7:50 PM52 °FClear.8 mph94%29.95 "Hg10 mi
7:20 PM54 °FClear.7 mph88%29.95 "Hg10 mi
6:50 PM54 °FClear.8 mph88%29.95 "Hg10 mi
6:20 PM52 °FClear.7 mph94%29.98 "Hg10 mi
5:50 PM52 °FClear.8 mph94%29.95 "Hg10 mi
5:20 PM52 °FSunny.8 mph94%29.95 "Hg10 mi
4:50 PM52 °FSunny.7 mph94%29.95 "Hg10 mi
4:20 PM54 °FSunny.8 mph88%29.95 "Hg10 mi
3:50 PM55 °FSunny.8 mph82%29.95 "Hg10 mi
3:20 PM55 °FSunny.8 mph82%29.98 "Hg10 mi
2:50 PM57 °FSunny.9 mph77%29.98 "Hg10 mi
2:20 PM57 °FSunny.8 mph82%29.98 "Hg10 mi
1:50 PM55 °FSunny.8 mph82%30.01 "Hg10 mi
1:20 PM55 °FSunny.9 mph82%30.01 "Hg10 mi
12:50 PM55 °FSunny.9 mph82%30.04 "Hg10 mi
12:20 PM54 °FPassing clouds.8 mph82%30.04 "HgN/A
11:50 AM54 °FPassing clouds.8 mph82%30.04 "HgN/A
11:20 AM52 °FSunny.9 mph88%30.07 "Hg10 mi
10:50 AM52 °FSunny.9 mph88%30.07 "Hg10 mi
10:20 AM50 °FSunny.8 mph94%30.07 "Hg10 mi
9:50 AM50 °FSunny.8 mph94%30.07 "Hg10 mi
9:20 AM50 °FSunny.8 mph94%30.07 "Hg10 mi
8:50 AM48 °FClear.8 mph100%30.07 "Hg10 mi
8:20 AM48 °FClear.7 mph94%30.07 "Hg10 mi
7:50 AM46 °FClear.8 mph100%30.07 "Hg10 mi
7:20 AM46 °FClear.7 mph100%30.07 "Hg10 mi
6:50 AM48 °FClear.8 mph100%30.04 "Hg10 mi
6:20 AM48 °FClear.8 mph100%30.07 "Hg10 mi
5:50 AM48 °FClear.8 mph100%30.07 "Hg10 mi
5:20 AM48 °FClear.8 mph100%30.07 "Hg10 mi
4:50 AM48 °FClear.7 mph100%30.07 "Hg10 mi
Weather by CustomWeather, © 2014

See weather overviewHow to use our weather pages